Simultaneous Nadir Overpasses (SNOs) Predictions

Prediction of SNOs between GOES-16 and NOAA-19 Satellite Orbit:

Table of predicted SNOs for the next 14.0 days since TLE Epoch: 9/12/2025
Index Date Time (GOES-16) GOES-16 Lat,Lon NOAA-19 Lat,Lon Distance(km) Time Diff (sec)
1 09/13/2025 04:41:53 -0.07,-104.63 0.57,-101.93 309.27 80
2 09/15/2025 17:02:54 0.09,-104.68 0.46,-106.31 185.73 80
3 09/16/2025 16:47:35 0.09,-104.68 -0.27,-103.24 164.78 80
4 09/19/2025 05:08:55 -0.10,-104.62 -0.78,-107.69 349.66 80
5 09/20/2025 04:53:34 -0.10,-104.62 -0.10,-104.61 1.21 80
6 09/21/2025 04:40:54 -0.09,-104.62 0.58,-101.53 352.11 80
7 09/22/2025 17:14:36 0.11,-104.68 1.08,-109.00 492.71 80
8 09/23/2025 17:01:55 0.11,-104.68 0.40,-105.92 141.62 80
9 09/24/2025 16:46:36 0.10,-104.68 -0.34,-102.85 209.47 80
